This is the latest recevied weather packets stored in our database for station/object N0HEQ. If no packets are shown the sender has not sent any weather packets the latest 10 day(s).
| Time | Temp. | Humidity | Pressure | Rain* | Wind** | Luminosity | Snow |
|---|---|---|---|---|---|---|---|
| 1777726772 | 5.56° C | 48% | 1025.4 hPa | 0 mm | - | 28 W/m² | - |
| 1777726468 | 5.56° C | 49% | 1025.3 hPa | 0 mm | - | 25 W/m² | - |
| 1777726165 | 5° C | 50% | 1025.2 hPa | 0 mm | - | 31 W/m² | - |
| 1777725862 | 5° C | 50% | 1025.2 hPa | 0 mm | - | 26 W/m² | - |
| 1777725560 | 5° C | 51% | 1024.8 hPa | 0 mm | - | 18 W/m² | - |
| 1777725256 | 5° C | 51% | 1024.9 hPa | 0 mm | - | 15 W/m² | - |
| 1777724954 | 4.44° C | 51% | 1025.2 hPa | 0 mm | - | 14 W/m² | - |
| 1777724650 | 4.44° C | 52% | 1025.1 hPa | 0 mm | - | 12 W/m² | - |
| 1777724348 | 4.44° C | 52% | 1024.8 hPa | 0 mm | - | 10 W/m² | - |
| 1777724045 | 4.44° C | 52% | 1024.7 hPa | 0 mm | - | 7 W/m² | - |
| 1777723743 | 4.44° C | 52% | 1024.8 hPa | 0 mm | - | 5 W/m² | - |
| 1777723438 | 4.44° C | 52% | 1024.8 hPa | 0 mm | - | 4 W/m² | - |
| 1777723136 | 4.44° C | 52% | 1024.7 hPa | 0 mm | - | 2 W/m² | - |
| 1777722833 | 4.44° C | 51% | 1024.6 hPa | 0 mm | - | 1 W/m² | - |
| 1777722529 | 4.44° C | 51% | 1024.7 hPa | 0 mm | - | 0 W/m² | - |
| 1777722226 | 4.44° C | 51% | 1024.9 hPa | 0 mm | - | 0 W/m² | - |
| 1777721923 | 4.44° C | 51% | 1024.7 hPa | 0 mm | - | 0 W/m² | - |
| 1777721621 | 4.44° C | 52% | 1024.5 hPa | 0 mm | - | 0 W/m² | - |
| 1777721319 | 4.44° C | 51% | 1024.6 hPa | 0 mm | - | 0 W/m² | - |
| 1777721016 | 4.44° C | 51% | 1024.6 hPa | 0 mm | - | 0 W/m² | - |
| 1777720713 | 4.44° C | 53% | 1024.6 hPa | 0 mm | - | 0 W/m² | - |
| 1777720411 | 4.44° C | 52% | 1024.8 hPa | 0 mm | - | 0 W/m² | - |
| 1777720108 | 4.44° C | 52% | 1024.6 hPa | 0 mm | - | 0 W/m² | - |
| 1777719806 | 4.44° C | 53% | 1024.8 hPa | 0 mm | - | 0 W/m² | - |
| 1777719503 | 3.89° C | 53% | 1024.6 hPa | 0 mm | - | 0 W/m² | - |
* Rain latest hour (hover to see other rain measurements)
** Current wind speed in m/s (hover to see current wind gust speed)